sat.trackr.live / text

‹ back to catalog

STARLINK-3782

NORAD 52273 · 2022-041N

PAYLOAD ACTIVE UNKNOWN

§ Identity

Operator
Country
US
Launch date
2022-04-21
Launch site
AFETR
Launch vehicle
Mass (kg)
RCS (m²)

Purposes: comms

External: N2YO · Heavens-Above · Gunter

§ Orbital elements

Epoch: 2026-05-25T02:18:15.810912Z

Period
95.44 min
Inclination
53.2142°
Eccentricity
0.0001168
Mean motion
15.08840983 rev/d
Perigee alt
538.9 km
Apogee alt
540.5 km
Semi-major
6,917.9 km
B*
-1.2377e-5
RAAN
116.5000°
Arg perigee
67.1452°
Mean anomaly
292.9663°
Rev number
22,603

§ Raw data

STARLINK-37821 52273U 22041N   26145.09601633 -.00000485  00000+0 -12377-4 0  99962 52273  53.2142 116.5000 0001168  67.1452 292.9663 15.08840983226038

JSON: /api/v1/satellites/52273 · /tle

For live sub-satellite position, see the globe view (requires WebGL).

§ Visibility from observer

Set your observer location to see the next 7 days of passes ≥ 10°. The values pass through the URL so the page stays shareable.

No JS? Fill the form by hand. The geolocation button needs JavaScript.